GAP2997 RPLL-RPMZ

Flight info

Callsign GAP2997
Flight time 1h 13m
Altitude 33000
Route VERDE2V VERDE A461 TINDO TINDO1W
Aircraft A320/M-SDE3FGHIRWY/LB1

Departure

Time 2026-04-24 06:14
Airport Ninoy Aquino International Airport (RPLL)

Arrival

Time 2026-04-24 07:27
Airport Zamboanga International Airport (RPMZ)
Time Latitude Longitude Altitude Speed Heading
2026-04-24 05:53 14.50924 121.01408 81 ft 0 kts 331°
2026-04-24 05:57 14.50919 121.01411 81 ft 2 kts 331°
2026-04-24 05:57 14.50906 121.01417 81 ft 2 kts 331°
2026-04-24 05:57 14.50893 121.01425 81 ft 2 kts 331°
2026-04-24 05:58 14.50880 121.01433 81 ft 2 kts 331°
2026-04-24 05:58 14.50867 121.01440 81 ft 2 kts 331°
2026-04-24 05:58 14.50853 121.01447 81 ft 2 kts 331°
2026-04-24 05:58 14.50839 121.01450 81 ft 2 kts
2026-04-24 05:59 14.50825 121.01445 81 ft 2 kts 40°
2026-04-24 05:59 14.50816 121.01433 81 ft 2 kts 66°
2026-04-24 05:59 14.50809 121.01419 81 ft 2 kts 58°
2026-04-24 05:59 14.50801 121.01405 81 ft 2 kts 61°
2026-04-24 06:00 14.50795 121.01394 81 ft 0 kts 60°
2026-04-24 06:04 14.50797 121.01399 81 ft 2 kts 60°
2026-04-24 06:04 14.50811 121.01422 81 ft 5 kts 60°
2026-04-24 06:04 14.50835 121.01465 81 ft 7 kts 60°
2026-04-24 06:04 14.50862 121.01514 81 ft 8 kts 60°
2026-04-24 06:05 14.50889 121.01565 81 ft 8 kts 61°
2026-04-24 06:05 14.50920 121.01620 81 ft 9 kts 60°
2026-04-24 06:05 14.50954 121.01675 81 ft 6 kts 43°
2026-04-24 06:05 14.50994 121.01680 81 ft 6 kts 335°
2026-04-24 06:06 14.51030 121.01644 81 ft 7 kts 314°
2026-04-24 06:06 14.51070 121.01601 81 ft 8 kts 314°
2026-04-24 06:06 14.51117 121.01553 81 ft 9 kts 315°
2026-04-24 06:06 14.51168 121.01500 81 ft 10 kts 316°
2026-04-24 06:07 14.51225 121.01444 81 ft 7 kts 315°
2026-04-24 06:07 14.51263 121.01425 81 ft 6 kts
2026-04-24 06:07 14.51294 121.01439 81 ft 4 kts 50°
2026-04-24 06:07 14.51319 121.01465 81 ft 5 kts 26°
2026-04-24 06:08 14.51354 121.01448 81 ft 6 kts 313°
2026-04-24 06:08 14.51393 121.01407 81 ft 10 kts 314°
2026-04-24 06:08 14.51452 121.01346 81 ft 13 kts 315°
2026-04-24 06:08 14.51530 121.01266 81 ft 17 kts 314°
2026-04-24 06:09 14.51622 121.01170 81 ft 20 kts 315°
2026-04-24 06:09 14.51724 121.01067 81 ft 20 kts 315°
2026-04-24 06:09 14.51825 121.00961 81 ft 20 kts 314°
2026-04-24 06:09 14.51924 121.00860 81 ft 19 kts 316°
2026-04-24 06:10 14.52023 121.00765 81 ft 17 kts 317°
2026-04-24 06:10 14.52106 121.00686 81 ft 15 kts 315°
2026-04-24 06:10 14.52185 121.00605 81 ft 16 kts 315°
2026-04-24 06:11 14.52346 121.00438 81 ft 13 kts 314°
2026-04-24 06:11 14.52380 121.00392 81 ft 7 kts 298°
2026-04-24 06:11 14.52401 121.00353 81 ft 1 kts 307°
2026-04-24 06:11 14.52408 121.00356 81 ft 1 kts 60°
2026-04-24 06:12 14.52393 121.00376 81 ft 5 kts 143°
2026-04-24 06:12 14.52379 121.00388 81 ft 0 kts 134°
2026-04-24 06:13 14.52379 121.00389 81 ft 3 kts 134°
2026-04-24 06:13 14.52179 121.00594 82 ft 81 kts 135°
2026-04-24 06:13 14.51605 121.01192 83 ft 148 kts 136°
2026-04-24 06:13 14.50819 121.01999 502 ft 162 kts 133°
2026-04-24 06:14 14.50033 121.02813 1185 ft 164 kts 137°
2026-04-24 06:14 14.49228 121.03651 1888 ft 161 kts 135°
2026-04-24 06:14 14.48417 121.04490 2206 ft 172 kts 135°
2026-04-24 06:14 14.47534 121.05403 2481 ft 187 kts 135°
2026-04-24 06:15 14.46575 121.06397 2731 ft 204 kts 135°
2026-04-24 06:15 14.45526 121.07485 2951 ft 226 kts 135°
2026-04-24 06:15 14.44364 121.08672 3311 ft 243 kts 138°
2026-04-24 06:15 14.42801 121.09501 3668 ft 262 kts 169°
2026-04-24 06:16 14.40962 121.09403 4249 ft 271 kts 192°
2026-04-24 06:16 14.39124 121.08918 4910 ft 276 kts 193°
2026-04-24 06:16 14.37235 121.08424 5611 ft 281 kts 193°
2026-04-24 06:16 14.35302 121.07935 6327 ft 285 kts 193°
2026-04-24 06:17 14.33362 121.07454 7057 ft 288 kts 193°
2026-04-24 06:17 14.31408 121.06975 7809 ft 291 kts 193°
2026-04-24 06:17 14.29436 121.06473 8563 ft 293 kts 197°
2026-04-24 06:17 14.27556 121.05698 9284 ft 296 kts 208°
2026-04-24 06:18 14.25781 121.04578 10028 ft 298 kts 214°
2026-04-24 06:18 14.24061 121.03361 10613 ft 305 kts 216°
2026-04-24 06:18 14.22279 121.02082 10925 ft 322 kts 216°
2026-04-24 06:18 14.20370 121.00716 11214 ft 340 kts 215°
2026-04-24 06:19 14.18381 120.99303 11483 ft 356 kts 215°
2026-04-24 06:19 14.16299 120.97830 11782 ft 370 kts 215°
2026-04-24 06:19 14.14160 120.96322 12296 ft 375 kts 215°
2026-04-24 06:19 14.11995 120.94797 12911 ft 377 kts 215°
2026-04-24 06:20 14.09819 120.93265 13491 ft 379 kts 215°
2026-04-24 06:20 14.07649 120.91736 14024 ft 383 kts 215°
2026-04-24 06:20 14.05308 120.90400 14486 ft 389 kts 200°
2026-04-24 06:20 14.02609 120.89936 14974 ft 393 kts 180°
2026-04-24 06:21 13.99904 120.90372 15490 ft 396 kts 167°
2026-04-24 06:21 13.97213 120.91083 15932 ft 400 kts 166°
2026-04-24 06:21 13.94501 120.91806 16371 ft 404 kts 166°
2026-04-24 06:21 13.91777 120.92526 16798 ft 407 kts 166°
2026-04-24 06:22 13.89009 120.93247 17246 ft 410 kts 166°
2026-04-24 06:22 13.86216 120.93967 17663 ft 413 kts 166°
2026-04-24 06:22 13.83404 120.94689 18094 ft 416 kts 166°
2026-04-24 06:22 13.80614 120.95405 18555 ft 418 kts 166°
2026-04-24 06:23 13.77774 120.96133 19029 ft 420 kts 166°
2026-04-24 06:23 13.74920 120.96866 19467 ft 422 kts 166°
2026-04-24 06:23 13.72058 120.97600 19883 ft 424 kts 166°
2026-04-24 06:23 13.69161 120.98343 20307 ft 427 kts 166°
2026-04-24 06:24 13.66286 120.99081 20714 ft 429 kts 166°
2026-04-24 06:24 13.63354 120.99834 21117 ft 432 kts 166°
2026-04-24 06:24 13.60434 121.00584 21505 ft 434 kts 166°
2026-04-24 06:24 13.57486 121.01341 21892 ft 437 kts 166°
2026-04-24 06:25 13.54531 121.02093 22277 ft 439 kts 167°
2026-04-24 06:25 13.51519 121.02705 22670 ft 440 kts 172°
2026-04-24 06:25 13.48452 121.03083 23058 ft 442 kts 176°
2026-04-24 06:25 13.45390 121.03223 23433 ft 444 kts 180°
2026-04-24 06:26 13.42267 121.03263 23789 ft 446 kts 180°
2026-04-24 06:26 13.39174 121.03288 24120 ft 448 kts 180°
2026-04-24 06:26 13.36025 121.03313 24450 ft 451 kts 180°
2026-04-24 06:26 13.32887 121.03342 24778 ft 453 kts 180°
2026-04-24 06:27 13.29666 121.03375 25119 ft 455 kts 180°
2026-04-24 06:27 13.26506 121.03407 25444 ft 457 kts 180°
2026-04-24 06:27 13.23286 121.03437 25770 ft 459 kts 180°
2026-04-24 06:27 13.20099 121.03464 26080 ft 461 kts 180°
2026-04-24 06:28 13.16874 121.03491 26383 ft 463 kts 181°
2026-04-24 06:28 13.13653 121.03520 26676 ft 464 kts 181°
2026-04-24 06:28 13.10397 121.03551 26965 ft 466 kts 181°
2026-04-24 06:28 13.07131 121.03582 27236 ft 468 kts 181°
2026-04-24 06:29 13.03843 121.03613 27488 ft 470 kts 181°
2026-04-24 06:29 13.00529 121.03645 27727 ft 472 kts 181°
2026-04-24 06:29 12.97249 121.03677 27955 ft 474 kts 180°
2026-04-24 06:29 12.93895 121.03709 28179 ft 476 kts 181°
2026-04-24 06:30 12.90590 121.03745 28459 ft 476 kts 181°
2026-04-24 06:30 12.87279 121.03778 28807 ft 474 kts 181°
2026-04-24 06:30 12.83956 121.03812 29167 ft 473 kts 181°
2026-04-24 06:30 12.80658 121.03845 29515 ft 471 kts 181°
2026-04-24 06:31 12.77345 121.03878 29883 ft 470 kts 181°
2026-04-24 06:31 12.74088 121.03911 30243 ft 468 kts 181°
2026-04-24 06:31 12.70806 121.03944 30584 ft 467 kts 181°
2026-04-24 06:31 12.67506 121.03977 30924 ft 466 kts 181°
2026-04-24 06:32 12.64284 121.04010 31254 ft 465 kts 181°
2026-04-24 06:32 12.60993 121.04044 31531 ft 466 kts 181°
2026-04-24 06:32 12.57755 121.04077 31752 ft 467 kts 181°
2026-04-24 06:32 12.54467 121.04111 31973 ft 468 kts 181°
2026-04-24 06:33 12.51187 121.04145 32188 ft 469 kts 181°
2026-04-24 06:33 12.47892 121.04179 32396 ft 470 kts 181°
2026-04-24 06:33 12.44590 121.04214 32595 ft 471 kts 181°
2026-04-24 06:33 12.41236 121.04248 32800 ft 471 kts 181°
2026-04-24 06:34 12.37932 121.04369 32865 ft 473 kts 178°
2026-04-24 06:34 12.31277 121.05163 32878 ft 475 kts 172°
2026-04-24 06:35 12.24693 121.06398 32879 ft 476 kts 171°
2026-04-24 06:35 12.18126 121.07649 32872 ft 476 kts 171°
2026-04-24 06:36 12.11575 121.08892 32867 ft 475 kts 171°
2026-04-24 06:36 12.04950 121.10147 32868 ft 475 kts 171°
2026-04-24 06:37 11.98436 121.11377 32862 ft 474 kts 171°
2026-04-24 06:37 11.91934 121.12605 32862 ft 474 kts 171°
2026-04-24 06:38 11.85389 121.13838 32863 ft 475 kts 171°
2026-04-24 06:38 11.78818 121.15075 32862 ft 475 kts 171°
2026-04-24 06:39 11.72326 121.16298 32863 ft 474 kts 171°
2026-04-24 06:39 11.65800 121.17529 32867 ft 474 kts 171°
2026-04-24 06:40 11.59289 121.18756 32868 ft 473 kts 171°
2026-04-24 06:40 11.52800 121.19979 32868 ft 473 kts 171°
2026-04-24 06:41 11.46314 121.21199 32868 ft 473 kts 171°
2026-04-24 06:41 11.39833 121.22420 32867 ft 474 kts 171°
2026-04-24 06:42 11.33291 121.23652 32868 ft 473 kts 171°
2026-04-24 06:42 11.26825 121.24870 32863 ft 473 kts 171°
2026-04-24 06:43 11.20330 121.26094 32861 ft 473 kts 171°
2026-04-24 06:43 11.13829 121.27319 32860 ft 473 kts 171°
2026-04-24 06:44 11.07348 121.28543 32860 ft 472 kts 171°
2026-04-24 06:44 11.00858 121.29764 32860 ft 472 kts 171°
2026-04-24 06:45 10.94380 121.30985 32857 ft 473 kts 170°
2026-04-24 06:45 10.87884 121.32222 32860 ft 474 kts 170°
2026-04-24 06:46 10.81471 121.33443 32855 ft 473 kts 170°
2026-04-24 06:46 10.74999 121.34682 32854 ft 473 kts 170°
2026-04-24 06:47 10.68484 121.35931 32856 ft 473 kts 170°
2026-04-24 06:47 10.61989 121.37177 32856 ft 474 kts 170°
2026-04-24 06:48 10.55505 121.38422 32854 ft 474 kts 170°
2026-04-24 06:48 10.49003 121.39653 32854 ft 474 kts 171°
2026-04-24 06:49 10.42488 121.40852 32852 ft 474 kts 170°
2026-04-24 06:49 10.35976 121.42057 32849 ft 474 kts 170°
2026-04-24 06:50 10.29481 121.43267 32854 ft 475 kts 170°
2026-04-24 06:50 10.22958 121.44483 32851 ft 475 kts 170°
2026-04-24 06:51 10.16444 121.45699 32860 ft 475 kts 170°
2026-04-24 06:51 10.09938 121.46914 32859 ft 475 kts 170°
2026-04-24 06:52 10.03420 121.48131 32857 ft 475 kts 170°
2026-04-24 06:52 9.96921 121.49347 32860 ft 475 kts 170°
2026-04-24 06:53 9.90368 121.50575 32861 ft 474 kts 170°
2026-04-24 06:53 9.83867 121.51779 32861 ft 474 kts 170°
2026-04-24 06:54 9.77360 121.52985 32861 ft 474 kts 170°
2026-04-24 06:54 9.70839 121.54195 32861 ft 474 kts 170°
2026-04-24 06:55 9.64367 121.55376 32861 ft 473 kts 170°
2026-04-24 06:55 9.57868 121.56570 32861 ft 472 kts 170°
2026-04-24 06:56 9.51393 121.57766 32854 ft 471 kts 170°
2026-04-24 06:56 9.44898 121.58971 32844 ft 472 kts 170°
2026-04-24 06:57 9.38429 121.60169 32843 ft 472 kts 169°
2026-04-24 06:57 9.31955 121.61367 32846 ft 471 kts 169°
2026-04-24 06:58 9.25503 121.62563 32847 ft 471 kts 169°
2026-04-24 06:58 9.19047 121.63758 32849 ft 471 kts 169°
2026-04-24 06:59 9.12584 121.64955 32848 ft 470 kts 169°
2026-04-24 06:59 9.06136 121.66173 32847 ft 470 kts 169°
2026-04-24 07:00 8.99691 121.67388 32846 ft 470 kts 169°
2026-04-24 07:00 8.93258 121.68587 32847 ft 471 kts 169°
2026-04-24 07:01 8.86731 121.69794 32852 ft 471 kts 169°
2026-04-24 07:01 8.80290 121.70978 32856 ft 471 kts 169°
2026-04-24 07:02 8.73776 121.72179 32860 ft 471 kts 169°
2026-04-24 07:02 8.67304 121.73372 32860 ft 471 kts 169°
2026-04-24 07:03 8.60863 121.74562 32860 ft 470 kts 169°
2026-04-24 07:03 8.54388 121.75756 32582 ft 470 kts 169°
2026-04-24 07:03 8.51167 121.76350 32325 ft 467 kts 169°
2026-04-24 07:04 8.47926 121.76948 32060 ft 466 kts 169°
2026-04-24 07:04 8.44776 121.77528 31562 ft 465 kts 169°
2026-04-24 07:04 8.41583 121.78117 30838 ft 466 kts 169°
2026-04-24 07:04 8.38372 121.78709 29990 ft 468 kts 169°
2026-04-24 07:05 8.35151 121.79304 29067 ft 472 kts 169°
2026-04-24 07:05 8.31913 121.79901 28104 ft 476 kts 169°
2026-04-24 07:05 8.28654 121.80500 27353 ft 475 kts 168°
2026-04-24 07:05 8.25435 121.81091 26793 ft 470 kts 168°
2026-04-24 07:06 8.22189 121.81688 26179 ft 466 kts 168°
2026-04-24 07:06 8.19014 121.82272 25624 ft 462 kts 168°
2026-04-24 07:06 8.15859 121.82852 25094 ft 457 kts 168°
2026-04-24 07:06 8.12745 121.83425 24579 ft 453 kts 167°
2026-04-24 07:07 8.09644 121.83996 24068 ft 448 kts 167°
2026-04-24 07:07 8.06617 121.84553 23567 ft 444 kts 167°
2026-04-24 07:07 8.00556 121.85671 22556 ft 436 kts 167°
2026-04-24 07:08 7.97581 121.86217 22055 ft 433 kts 167°
2026-04-24 07:08 7.94617 121.86765 21565 ft 429 kts 167°
2026-04-24 07:08 7.91684 121.87306 21079 ft 425 kts 167°
2026-04-24 07:08 7.88766 121.87843 20583 ft 422 kts 167°
2026-04-24 07:09 7.85861 121.88376 20078 ft 419 kts 167°
2026-04-24 07:09 7.83000 121.88899 19580 ft 415 kts 167°
2026-04-24 07:09 7.80153 121.89422 19078 ft 412 kts 167°
2026-04-24 07:09 7.77366 121.89934 18583 ft 409 kts 167°
2026-04-24 07:10 7.74560 121.90449 18087 ft 405 kts 167°
2026-04-24 07:10 7.71780 121.90961 17591 ft 402 kts 167°
2026-04-24 07:10 7.69023 121.91469 17095 ft 399 kts 168°
2026-04-24 07:10 7.66294 121.91970 16594 ft 396 kts 167°
2026-04-24 07:11 7.63586 121.92467 16081 ft 394 kts 167°
2026-04-24 07:11 7.60884 121.92964 15565 ft 392 kts 167°
2026-04-24 07:11 7.58179 121.93462 15037 ft 390 kts 167°
2026-04-24 07:11 7.55527 121.93951 14512 ft 388 kts 168°
2026-04-24 07:12 7.52856 121.94443 13979 ft 387 kts 168°
2026-04-24 07:12 7.50212 121.94930 13452 ft 385 kts 168°
2026-04-24 07:12 7.47583 121.95413 12931 ft 383 kts 168°
2026-04-24 07:12 7.44949 121.95897 12423 ft 381 kts 168°
2026-04-24 07:13 7.42331 121.96378 11929 ft 378 kts 168°
2026-04-24 07:13 7.39771 121.96847 11452 ft 375 kts 168°
2026-04-24 07:13 7.37214 121.97315 10976 ft 371 kts 168°
2026-04-24 07:13 7.34717 121.97925 10514 ft 365 kts 157°
2026-04-24 07:14 7.32502 121.99107 10380 ft 346 kts 142°
2026-04-24 07:14 7.30715 122.00633 10264 ft 331 kts 135°
2026-04-24 07:14 7.29087 122.02200 10141 ft 317 kts 134°
2026-04-24 07:14 7.27561 122.03688 10045 ft 304 kts 134°
2026-04-24 07:15 7.26121 122.05086 9964 ft 291 kts 134°
2026-04-24 07:15 7.24695 122.06463 9773 ft 284 kts 134°
2026-04-24 07:15 7.23320 122.07786 9440 ft 283 kts 134°
2026-04-24 07:15 7.21983 122.09068 9130 ft 281 kts 134°
2026-04-24 07:16 7.19096 122.11831 8472 ft 277 kts 134°
2026-04-24 07:16 7.18189 122.12697 8268 ft 276 kts 134°
2026-04-24 07:16 7.16792 122.14030 7954 ft 273 kts 134°
2026-04-24 07:17 7.15420 122.15339 7643 ft 271 kts 134°
2026-04-24 07:17 7.14067 122.16629 7338 ft 270 kts 134°
2026-04-24 07:17 7.12695 122.17939 7028 ft 268 kts 134°
2026-04-24 07:17 7.11353 122.19217 6726 ft 266 kts 134°
2026-04-24 07:18 7.09567 122.20920 6314 ft 264 kts 134°
2026-04-24 07:18 7.08671 122.21774 6110 ft 263 kts 134°
2026-04-24 07:18 7.07354 122.23030 5811 ft 261 kts 134°
2026-04-24 07:18 7.05595 122.24711 5408 ft 259 kts 134°
2026-04-24 07:19 7.04724 122.25542 5212 ft 258 kts 134°
2026-04-24 07:19 7.03418 122.26789 4920 ft 257 kts 134°
2026-04-24 07:19 7.02122 122.28027 4623 ft 254 kts 134°
2026-04-24 07:19 7.00875 122.29215 4313 ft 245 kts 134°
2026-04-24 07:20 6.99652 122.30360 4199 ft 229 kts 140°
2026-04-24 07:20 6.98267 122.31035 4134 ft 217 kts 171°
2026-04-24 07:20 6.96804 122.30936 4002 ft 204 kts 197°
2026-04-24 07:20 6.95506 122.30388 3780 ft 201 kts 204°
2026-04-24 07:21 6.94234 122.29787 3547 ft 200 kts 204°
2026-04-24 07:21 6.92547 122.28999 3254 ft 199 kts 205°
2026-04-24 07:21 6.91762 122.28513 3094 ft 197 kts 221°
2026-04-24 07:21 6.91005 122.27423 2846 ft 190 kts 250°
2026-04-24 07:22 6.90820 122.26128 2596 ft 184 kts 273°
2026-04-24 07:22 6.90915 122.24882 2475 ft 170 kts 276°
2026-04-24 07:22 6.91062 122.23364 2493 ft 162 kts 276°
2026-04-24 07:22 6.91173 122.22231 2480 ft 162 kts 276°
2026-04-24 07:23 6.91238 122.21478 2480 ft 162 kts 275°
2026-04-24 07:23 6.91346 122.19967 2465 ft 163 kts 274°
2026-04-24 07:23 6.91393 122.19214 2347 ft 162 kts 274°
2026-04-24 07:23 6.91461 122.18092 2132 ft 160 kts 275°
2026-04-24 07:24 6.91529 122.16974 1924 ft 159 kts 275°
2026-04-24 07:24 6.91596 122.15888 1724 ft 151 kts 274°
2026-04-24 07:24 6.91661 122.14874 1507 ft 141 kts 274°
2026-04-24 07:24 6.91724 122.13891 1349 ft 141 kts 274°
2026-04-24 07:25 6.91808 122.12584 1100 ft 140 kts 274°
2026-04-24 07:25 6.91851 122.11923 974 ft 139 kts 273°
2026-04-24 07:25 6.91914 122.10947 792 ft 139 kts 274°
2026-04-24 07:25 6.91973 122.09979 598 ft 137 kts 272°
2026-04-24 07:26 6.92058 122.08697 359 ft 137 kts 272°
2026-04-24 07:26 6.92099 122.08058 257 ft 136 kts 273°
2026-04-24 07:26 6.92167 122.07100 101 ft 136 kts 271°
2026-04-24 07:26 6.92239 122.06015 65 ft 70 kts 274°
2026-04-24 07:27 6.92256 122.05773 65 ft 8 kts 274°
2026-04-24 07:27 6.92252 122.05716 65 ft 8 kts 261°
2026-04-24 07:27 6.92250 122.05682 65 ft 6 kts 274°
2026-04-24 07:27 6.92258 122.05641 65 ft 3 kts 304°
2026-04-24 07:28 6.92272 122.05621 65 ft 1 kts 256°
2026-04-24 07:28 6.92266 122.05621 65 ft 1 kts 140°
2026-04-24 07:28 6.92263 122.05636 65 ft 4 kts 92°
2026-04-24 07:28 6.92261 122.05704 65 ft 9 kts 93°
2026-04-24 07:29 6.92257 122.05754 65 ft 12 kts 94°
2026-04-24 07:29 6.92250 122.05850 65 ft 13 kts 94°
2026-04-24 07:29 6.92240 122.05959 65 ft 9 kts 112°
2026-04-24 07:29 6.92211 122.05991 65 ft 8 kts 139°
2026-04-24 07:30 6.92164 122.06031 64 ft 9 kts 139°
2026-04-24 07:30 6.92123 122.06068 64 ft 4 kts 129°
2026-04-24 07:30 6.92116 122.06095 64 ft 4 kts 90°
2026-04-24 07:30 6.92115 122.06132 64 ft 5 kts 92°
2026-04-24 07:31 6.92112 122.06175 64 ft 4 kts 95°
2026-04-24 07:31 6.92107 122.06208 64 ft 2 kts 113°
2026-04-24 07:31 6.92088 122.06221 64 ft 4 kts 154°
2026-04-24 07:31 6.92073 122.06229 64 ft 2 kts 155°
2026-04-24 07:32 6.92056 122.06236 64 ft 1 kts 155°
2026-04-24 07:32 6.92051 122.06239 64 ft 1 kts 155°
2026-04-24 07:32 6.92048 122.06240 64 ft 0 kts 155°